Location: Alto Pass Reservoir
(37.5801°N, 89.3084°W)
Time: 13:37:39
(UTC+00:00)

NEOSSAT - Pass Details

Date: 01 October 2022
Orbit: 767 x 784 km, 98.4° (Epoch: 26 November)

Event Time Altitude Azimuth Distance (km) Brightness Sun altitude
Rises 11:16:16 0° 144° (SE) 3,231 ? -8.1°
Reaches altitude 10° 11:18:42 10° 136° (SE) 2,311 ? -7.6°
Maximum altitude 11:23:21 37° 70° (ENE) 1,195 ? -6.7°
Drops below altitude 10° 11:28:02 10° 4° (N) 2,335 ? -5.7°
Sets 11:30:30 0° 357° (N) 3,269 ? -5.3°
